GW0648 Weather Reports


time (UTC)temp
F
wind
direction
speed
knots
gust
knots
rain 1hr
in
rain 24hr
in
rain mn
in
humidity
%
barometer
mb
20260503204340 65 119 0.0 0.0 0.00 0.00 0.00 35 1013.4
20260503203842 64 120 0.0 0.0 0.00 0.00 0.00 38 1013.8
20260503203411 64 120 0.0 0.0 0.00 0.00 0.00 37 1013.8
20260503202842 64 120 0.0 0.0 0.00 0.00 0.00 36 1013.8
20260503202346 64 120 0.0 0.0 0.00 0.00 0.00 34 1013.9
20260503201839 64 109 0.0 0.0 0.00 0.00 0.00 35 1013.9
20260503201348 65 80 0.0 0.0 0.00 0.00 0.00 35 1013.9
20260503200842 65 81 0.0 0.0 0.00 0.00 0.00 34 1014.0
20260503200354 65 81 0.0 0.0 0.00 0.00 0.00 36 1014.0
20260503195842 65 330 0.0 0.0 0.00 0.00 0.00 30 1014.0
20260503195333 65 298 0.0 0.0 0.00 0.00 0.00 31 1014.3
20260503194840 64 298 0.0 0.0 0.00 0.00 0.00 32 1014.3
20260503193841 65 273 0.0 0.0 0.00 0.00 0.00 33 1014.6
20260503193343 65 273 0.0 0.0 0.00 0.00 0.00 35 1014.6
20260503192913 65 273 0.0 0.0 0.00 0.00 0.00 37 1014.6
20260503192339 65 273 0.0 0.0 0.00 0.00 0.00 35 1014.9
20260503191848 65 259 0.0 0.0 0.00 0.00 0.00 32 1014.9
20260503191356 65 166 0.0 0.0 0.00 0.00 0.00 35 1014.9
20260503190828 64 165 0.0 0.0 0.00 0.00 0.00 33 1015.0
20260503190325 64 164 0.0 0.0 0.00 0.00 0.00 34 1015.0
20260503185833 65 298 0.0 0.0 0.00 0.00 0.00 32 1015.0
20260503185355 64 63 0.0 0.0 0.00 0.00 0.00 36 1015.0
20260503184921 64 60 0.0 0.0 0.00 0.00 0.00 36 1015.0
20260503184421 64 59 0.0 0.0 0.00 0.00 0.00 38 1015.0
20260503183835 64 311 0.0 0.0 0.00 0.00 0.00 38 1015.4
20260503183326 64 311 0.0 0.0 0.00 0.00 0.00 35 1015.4
20260503182855 64 311 0.0 0.0 0.00 0.00 0.00 34 1015.4
20260503182333 63 80 0.0 0.0 0.00 0.00 0.00 38 1015.5
20260503181828 62 81 0.0 0.0 0.00 0.00 0.00 41 1015.5
20260503181358 61 81 0.0 0.0 0.00 0.00 0.00 38 1015.5
20260503180839 61 81 0.0 0.0 0.00 0.00 0.00 38 1015.6
20260503180407 61 78 0.0 0.0 0.00 0.00 0.00 36 1015.6
20260503175909 61 78 0.0 0.0 0.00 0.00 0.00 37 1015.6
20260503175419 61 78 0.0 0.0 0.00 0.00 0.00 38 1016.0
20260503174847 61 102 0.0 0.0 0.00 0.00 0.00 38 1016.0
20260503174353 61 113 0.0 0.0 0.00 0.00 0.00 38 1016.0
20260503173902 60 113 0.0 0.0 0.00 0.00 0.00 38 1016.1
20260503173332 59 113 0.0 0.0 0.00 0.00 0.00 44 1016.1
20260503172858 59 111 0.0 0.0 0.00 0.00 0.00 40 1016.1
20260503172325 59 111 0.0 0.0 0.00 0.00 0.00 43 1016.6
20260503171857 59 111 0.0 0.0 0.00 0.00 0.00 41 1016.6
20260503171335 59 210 0.0 0.0 0.00 0.00 0.00 40 1016.6
20260503170900 59 214 0.0 0.0 0.00 0.00 0.00 41 1016.7
20260503170336 59 217 0.0 0.0 0.00 0.00 0.00 42 1016.7
20260503150838 53 57 0.0 0.0 0.00 0.00 0.00 51 1017.7
20260503150342 53 57 0.0 0.0 0.00 0.00 0.00 51 1017.7
20260503131350 46 25 0.0 0.0 0.00 0.00 0.00 75 1017.6
20260503130836 45 24 0.0 0.0 0.00 0.00 0.00 76 1017.5
20260503130348 44 24 0.0 0.0 0.00 0.00 0.00 80 1017.5
20260503110340 35 24 0.0 0.0 0.00 0.00 0.00 92 1016.6
20260503090343 37 24 0.0 0.0 0.00 0.00 0.00 91 1015.1
20260503081352 37 24 0.0 0.0 0.00 0.00 0.00 90 1014.9
20260503080845 37 24 0.0 0.0 0.00 0.00 0.00 89 1014.4
20260503080350 37 24 0.0 0.0 0.00 0.00 0.00 89 1014.4
20260503072854 38 24 0.0 0.0 0.00 0.00 0.00 88 1014.4
20260503072332 38 24 0.0 0.0 0.00 0.00 0.00 87 1014.3
20260503071854 38 24 0.0 0.0 0.00 0.00 0.00 88 1014.3
20260503071330 38 24 0.0 0.0 0.00 0.00 0.00 87 1014.3
20260503070855 38 24 0.0 0.0 0.00 0.00 0.00 86 1013.9
20260503070359 38 24 0.0 0.0 0.00 0.00 0.00 86 1013.9
20260503060338 39 24 0.0 0.0 0.00 0.00 0.00 85 1013.9
20260503054839 40 24 0.0 0.0 0.00 0.00 0.00 83 1013.9
20260503054326 40 24 0.0 0.0 0.00 0.00 0.00 83 1013.9
20260503053911 40 24 0.0 0.0 0.00 0.00 0.00 83 1014.2
20260503053342 40 24 0.0 0.0 0.00 0.00 0.00 82 1014.2
20260503052854 40 24 0.0 0.0 0.00 0.00 0.00 83 1014.2
20260503052359 40 24 0.0 0.0 0.00 0.00 0.00 82 1014.0
20260503051853 40 24 0.0 0.0 0.00 0.00 0.00 81 1014.0
20260503051333 40 24 0.0 0.0 0.00 0.00 0.00 81 1014.0
20260503050900 41 24 0.0 0.0 0.00 0.00 0.00 81 1013.9
20260503050331 41 24 0.0 0.0 0.00 0.00 0.00 81 1013.9
20260503045850 41 24 0.0 0.0 0.00 0.00 0.00 80 1013.9
20260503045348 41 24 0.0 0.0 0.00 0.00 0.00 80 1013.9
20260503044831 41 24 0.0 0.0 0.00 0.00 0.00 80 1013.9
20260503044417 41 24 0.0 0.0 0.00 0.00 0.00 79 1013.9
20260503043844 42 24 0.0 0.0 0.00 0.00 0.00 80 1013.9
20260503043350 42 24 0.0 0.0 0.00 0.00 0.00 79 1013.9
20260503042845 42 24 0.0 0.0 0.00 0.00 0.00 79 1013.9
20260503042349 42 24 0.0 0.0 0.00 0.00 0.00 79 1013.7
20260503041843 42 24 0.0 0.0 0.00 0.00 0.00 78 1013.7
20260503041335 42 24 0.0 0.0 0.00 0.00 0.00 77 1013.7
20260503040841 43 24 0.0 0.0 0.00 0.00 0.00 76 1013.3
20260503040356 43 24 0.0 0.0 0.00 0.00 0.00 76 1013.3
20260503035849 43 24 0.0 0.0 0.00 0.00 0.00 76 1013.3
20260503035334 43 24 0.0 0.0 0.00 0.00 0.00 75 1013.3
20260503034837 43 24 0.0 0.0 0.00 0.00 0.00 74 1013.3
20260503034339 43 24 0.0 0.0 0.00 0.00 0.00 73 1013.3
20260503033829 44 24 0.0 0.0 0.00 0.00 0.00 73 1013.2
20260503033338 44 24 0.0 0.0 0.00 0.00 0.00 73 1013.2
20260503032834 44 24 0.0 0.0 0.00 0.00 0.00 73 1013.2
20260503032335 44 24 0.0 0.0 0.00 0.00 0.00 72 1013.1
20260503031829 44 24 0.0 0.0 0.00 0.00 0.00 69 1013.1
20260503031334 44 24 0.0 0.0 0.00 0.00 0.00 69 1013.1
20260503030839 44 24 0.0 0.0 0.00 0.00 0.00 70 1013.2
20260503030409 45 24 0.0 0.0 0.00 0.00 0.00 68 1013.2
20260503025857 45 24 0.0 0.0 0.00 0.00 0.00 67 1013.2
20260503025342 46 24 0.0 0.0 0.00 0.00 0.00 65 1012.8
20260503024907 46 24 0.0 0.0 0.00 0.00 0.00 64 1012.8
20260503024338 46 24 0.0 0.0 0.00 0.00 0.00 61 1012.8
20260503023844 47 24 0.0 0.0 0.00 0.00 0.00 61 1012.7
20260503023341 47 24 0.0 0.0 0.00 0.00 0.00 64 1012.7
20260503022850 47 24 0.0 0.0 0.00 0.00 0.00 60 1012.7
20260503022334 48 24 0.0 0.0 0.00 0.00 0.00 58 1012.7
20260503021841 48 24 0.0 0.0 0.00 0.00 0.00 57 1012.7
20260503021408 48 24 0.0 0.0 0.00 0.00 0.00 56 1012.7
20260503020837 48 24 0.0 0.0 0.00 0.00 0.00 55 1012.6
20260503020344 49 24 0.0 0.0 0.00 0.00 0.00 55 1012.6
20260503015907 49 24 0.0 0.0 0.00 0.00 0.00 53 1012.6
20260503015337 50 25 0.0 0.0 0.00 0.00 0.00 54 1012.6
20260503014840 50 24 0.0 0.0 0.00 0.00 0.00 51 1012.6
20260503014334 50 24 0.0 0.0 0.00 0.00 0.00 51 1012.6
20260503013838 51 24 0.0 0.0 0.00 0.00 0.00 50 1012.2
20260503013344 51 24 0.0 0.0 0.00 0.00 0.00 48 1012.2
20260503012835 51 24 0.0 0.0 0.00 0.00 0.00 48 1012.2
20260503012357 51 24 0.0 0.0 0.00 0.00 0.00 49 1012.0
20260503011834 51 24 0.0 0.0 0.00 0.00 0.00 47 1012.0
20260503011341 52 24 0.0 0.0 0.00 0.00 0.00 47 1012.0
20260503010837 52 24 0.0 0.0 0.00 0.00 0.00 48 1011.7
20260503010344 52 24 0.0 0.0 0.00 0.00 0.00 47 1011.7
20260503005835 52 24 0.0 0.0 0.00 0.00 0.00 46 1011.7
20260503005344 52 24 0.0 0.0 0.00 0.00 0.00 45 1011.6
20260503004857 53 24 0.0 0.0 0.00 0.00 0.00 45 1011.6
20260503004419 53 24 0.0 0.0 0.00 0.00 0.00 45 1011.6
20260503003854 54 24 0.0 0.0 0.00 0.00 0.00 44 1011.1
20260503003357 54 24 0.0 0.0 0.00 0.00 0.00 43 1011.1
20260503002844 54 24 0.0 0.0 0.00 0.00 0.00 43 1011.1
20260503002335 55 24 0.0 0.0 0.00 0.00 0.00 41 1011.0
20260503001840 55 24 0.0 0.0 0.00 0.00 0.00 40 1011.0
20260503001334 55 24 0.0 0.0 0.00 0.00 0.00 38 1011.0
20260503000836 56 24 0.0 0.0 0.00 0.00 0.00 38 1010.6
20260503000404 56 344 0.0 0.0 0.00 0.00 0.00 36 1010.6
20260502235910 56 133 0.0 0.0 0.00 0.00 0.00 35 1010.6
20260502235342 56 178 0.0 0.0 0.00 0.00 0.00 37 1010.4
20260502234852 56 115 0.0 0.0 0.00 0.00 0.00 36 1010.4
20260502234415 56 115 0.0 0.0 0.00 0.00 0.00 38 1010.4
20260502233843 56 351 0.0 0.0 0.00 0.00 0.00 36 1010.2
20260502233329 56 331 0.0 0.0 0.00 0.00 0.00 35 1010.2
20260502232842 56 313 0.0 0.0 0.00 0.00 0.00 35 1010.2
20260502232335 56 162 0.0 0.0 0.00 0.00 0.00 36 1010.0
20260502231823 56 159 0.0 0.0 0.00 0.00 0.00 36 1010.0
20260502231334 56 65 0.0 0.0 0.00 0.00 0.00 38 1010.0
20260502230917 56 65 0.0 0.0 0.00 0.00 0.00 38 1010.0
20260502230345 57 65 0.0 0.0 0.00 0.00 0.00 39 1010.0
20260502225828 57 75 0.0 0.0 0.00 0.00 0.00 36 1010.0
20260502225400 57 55 0.0 0.0 0.00 0.00 0.00 38 1010.0
20260502224832 57 55 0.0 0.0 0.00 0.00 0.00 37 1010.0
20260502224353 57 102 0.0 0.0 0.00 0.00 0.00 38 1010.0
20260502223829 57 100 0.0 0.0 0.00 0.00 0.00 37 1010.0
20260502223335 57 60 0.0 0.0 0.00 0.00 0.00 36 1010.0
20260502222831 58 58 0.0 0.0 0.00 0.00 0.00 36 1010.0
20260502222343 58 58 0.0 0.0 0.00 0.00 0.00 37 1009.9
20260502221835 58 57 0.0 0.0 0.00 0.00 0.00 35 1009.9
20260502221348 58 73 0.0 0.0 0.00 0.00 0.00 35 1009.9
20260502220854 59 73 0.0 0.0 0.00 0.00 0.00 34 1009.5
20260502220328 59 79 0.0 0.0 0.00 0.00 0.00 35 1009.5
20260502215858 59 79 0.0 0.0 0.00 0.00 0.00 35 1009.5
20260502215333 59 91 0.0 0.0 0.00 0.00 0.00 36 1009.4
20260502214902 59 182 0.0 0.0 0.00 0.00 0.00 37 1009.4
20260502214412 59 182 0.0 0.0 0.00 0.00 0.00 36 1009.4
20260502213842 58 73 0.0 0.0 0.00 0.00 0.00 35 1009.1
20260502213354 58 281 0.0 0.0 0.00 0.00 0.00 36 1009.1
20260502212840 58 271 0.0 0.0 0.00 0.00 0.00 34 1009.1
20260502212410 58 71 0.0 0.0 0.00 0.00 0.00 35 1009.0
20260502211844 58 38 0.0 0.0 0.00 0.00 0.00 33 1009.0
20260502211354 58 78 0.0 0.0 0.00 0.00 0.00 34 1009.0
20260502210851 59 79 0.0 0.0 0.00 0.00 0.00 34 1008.8
20260502210356 59 66 0.0 0.0 0.00 0.00 0.00 34 1008.8
20260502205846 60 67 0.0 0.0 0.00 0.00 0.00 35 1008.8
20260502205337 60 336 0.0 0.0 0.00 0.00 0.00 36 1008.8
20260502204848 60 76 0.0 0.0 0.00 0.00 0.00 34 1008.8